Back to catalog

STARLINK-37605

AliveCommunicationsVLEO
NORAD 100055·PAYLOAD·🇺🇸 United States

Launched Jul 14, 2026 from Cape Canaveral Space Force Station

Loading…

Next Passes (next 24 hours)

TLE

FreshSource: Space-Track

Epoch: Sep 14, 2026, 15:17 UTC

1 A0055U 26161AD  26257.63704090  .00038017  00000-0  11303-2 0  9996
2 A0055  53.1612  24.8837 0000687  83.7450 276.3631 15.34409337  9714

Track STARLINK-37605 in real time with AllMySat

Download on the App Store